| time (UTC) | temp F | wind direction | speed MPH | gust MPH | rain 1hr in | rain 24hr in | rain mn in | humidity % | barometer mb |
| 20260904144556 | 65 | 158 | 7.0 | 18.0 | 0.08 | 0.70 | 0.66 | 94 | 1005.5 |
| 20260904143040 | 65 | 181 | 6.0 | 17.0 | 0.09 | 0.70 | 0.66 | 94 | 1005.7 |
| 20260904141539 | 65 | 178 | 9.0 | 17.0 | 0.02 | 0.63 | 0.59 | 94 | 1006.0 |
| 20260904140050 | 65 | 171 | 4.0 | 21.0 | 0.02 | 0.62 | 0.57 | 94 | 1006.3 |
| 20260904134537 | 65 | 161 | 8.0 | 22.0 | 0.09 | 0.62 | 0.57 | 94 | 1006.4 |
| 20260904133035 | 65 | 148 | 5.0 | 12.0 | 0.15 | 0.61 | 0.56 | 94 | 1006.5 |
| 20260904131534 | 65 | 186 | 6.0 | 17.0 | 0.16 | 0.61 | 0.56 | 94 | 1006.6 |
| 20260904130031 | 64 | 120 | 3.0 | 12.0 | 0.14 | 0.60 | 0.56 | 94 | 1006.7 |
| 20260904124528 | 65 | 154 | 10.0 | 19.0 | 0.06 | 0.51 | 0.47 | 94 | 1007.3 |
| 20260904123026 | 65 | 160 | 7.0 | 14.0 | 0.02 | 0.46 | 0.43 | 94 | 1007.4 |
| 20260904121524 | 65 | 171 | 7.0 | 14.0 | 0.03 | 0.46 | 0.42 | 94 | 1007.7 |
| 20260904120029 | 65 | 168 | 10.0 | 22.0 | 0.04 | 0.46 | 0.42 | 94 | 1007.8 |
| 20260904114525 | 65 | 184 | 8.0 | 16.0 | 0.05 | 0.46 | 0.42 | 94 | 1007.9 |
| 20260904113028 | 65 | 180 | 6.0 | 15.0 | 0.06 | 0.45 | 0.41 | 94 | 1008.2 |
| 20260904111517 | 65 | 97 | 5.0 | 13.0 | 0.05 | 0.43 | 0.39 | 94 | 1008.4 |
| 20260904110015 | 65 | 168 | 8.0 | 20.0 | 0.04 | 0.42 | 0.38 | 94 | 1008.5 |
| 20260904104514 | 64 | 136 | 5.0 | 13.0 | 0.04 | 0.41 | 0.37 | 94 | 1008.5 |
| 20260904103013 | 64 | 150 | 4.0 | 13.0 | 0.02 | 0.39 | 0.35 | 94 | 1008.5 |
| 20260904101511 | 64 | 191 | 7.0 | 14.0 | 0.02 | 0.38 | 0.34 | 94 | 1008.6 |
| 20260904100010 | 64 | 102 | 2.0 | 9.0 | 0.03 | 0.38 | 0.34 | 94 | 1008.8 |
| 20260904094523 | 64 | 115 | 2.0 | 11.0 | 0.04 | 0.37 | 0.33 | 94 | 1008.8 |
| 20260904093006 | 64 | 106 | 2.0 | 6.0 | 0.06 | 0.36 | 0.32 | 93 | 1009.1 |
| 20260904091503 | 64 | 134 | 1.0 | 6.0 | 0.11 | 0.36 | 0.32 | 93 | 1009.4 |
| 20260904090101 | 64 | 108 | 1.0 | 5.0 | 0.17 | 0.35 | 0.31 | 93 | 1009.9 |
| 20260904084559 | 64 | 103 | 1.0 | 8.0 | 0.23 | 0.33 | 0.28 | 93 | 1010.3 |
| 20260904083106 | 64 | 353 | 2.0 | 5.0 | 0.22 | 0.30 | 0.26 | 93 | 1010.3 |
| 20260904081555 | 64 | 165 | 2.0 | 7.0 | 0.18 | 0.25 | 0.21 | 93 | 1010.7 |
| 20260904080059 | 64 | 266 | 3.0 | 14.0 | 0.09 | 0.17 | 0.13 | 92 | 1010.8 |
| 20260904074555 | 65 | 183 | 6.0 | 13.0 | 0.03 | 0.10 | 0.06 | 92 | 1011.1 |
| 20260904073058 | 65 | 124 | 2.0 | 7.0 | 0.01 | 0.08 | 0.04 | 92 | 1011.3 |
| 20260904071547 | 65 | 122 | 3.0 | 12.0 | 0.00 | 0.07 | 0.03 | 92 | 1011.5 |
| 20260904070046 | 65 | 152 | 1.0 | 4.0 | 0.01 | 0.07 | 0.03 | 92 | 1011.8 |
| 20260904064543 | 65 | 100 | 2.0 | 7.0 | 0.01 | 0.07 | 0.03 | 92 | 1011.9 |
| 20260904063047 | 65 | 178 | 1.0 | 8.0 | 0.01 | 0.07 | 0.03 | 92 | 1012.2 |
| 20260904061540 | 65 | 129 | 1.0 | 10.0 | 0.01 | 0.07 | 0.03 | 92 | 1012.4 |
| 20260904060057 | 65 | 124 | 4.0 | 13.0 | 0.01 | 0.06 | 0.02 | 91 | 1012.7 |
| 20260904054540 | 66 | 198 | 6.0 | 16.0 | 0.01 | 0.06 | 0.02 | 91 | 1013.0 |
| 20260904053034 | 65 | 118 | 5.0 | 15.0 | 0.01 | 0.06 | 0.02 | 91 | 1013.1 |
| 20260904051526 | 65 | 131 | 4.0 | 9.0 | 0.01 | 0.06 | 0.02 | 91 | 1013.5 |
| 20260904050037 | 66 | 172 | 4.0 | 12.0 | 0.00 | 0.06 | 0.02 | 90 | 1013.8 |
| 20260904044522 | 65 | 163 | 4.0 | 12.0 | 0.00 | 0.06 | 0.02 | 89 | 1014.0 |
| 20260904043018 | 65 | 254 | 6.0 | 11.0 | 0.01 | 0.06 | 0.02 | 90 | 1014.3 |
| 20260904041519 | 65 | 151 | 3.0 | 7.0 | 0.01 | 0.06 | 0.02 | 90 | 1014.6 |
| 20260904040026 | 64 | 187 | 5.0 | 11.0 | 0.02 | 0.06 | 0.02 | 90 | 1014.7 |
| 20260904034513 | 64 | 174 | 4.0 | 13.0 | 0.02 | 0.06 | 0.02 | 91 | 1014.7 |
| 20260904033011 | 64 | 140 | 0.0 | 6.0 | 0.02 | 0.05 | 0.01 | 90 | 1014.8 |
| 20260904031507 | 64 | 109 | 4.0 | 10.0 | 0.01 | 0.04 | 0.00 | 89 | 1015.0 |
| 20260904030004 | 65 | 211 | 6.0 | 16.0 | 0.01 | 0.04 | 0.00 | 86 | 1015.4 |
| 20260904024501 | 65 | 144 | 6.0 | 12.0 | 0.00 | 0.03 | 0.03 | 85 | 1015.5 |
| 20260904023112 | 64 | 226 | 3.0 | 12.0 | 0.00 | 0.03 | 0.03 | 88 | 1015.8 |
| 20260904021558 | 65 | 250 | 2.0 | 10.0 | 0.00 | 0.03 | 0.03 | 91 | 1016.0 |
| 20260904020056 | 65 | 135 | 4.0 | 7.0 | 0.00 | 0.03 | 0.03 | 92 | 1016.1 |
| 20260904014555 | 64 | 160 | 3.0 | 7.0 | 0.00 | 0.03 | 0.03 | 92 | 1016.3 |
| 20260904013111 | 64 | 130 | 1.0 | 5.0 | 0.00 | 0.03 | 0.03 | 92 | 1016.6 |
| 20260904011548 | 64 | 198 | 0.0 | 2.0 | 0.00 | 0.03 | 0.03 | 92 | 1016.8 |
| 20260904010049 | 64 | 155 | 1.0 | 6.0 | 0.00 | 0.03 | 0.03 | 91 | 1017.0 |
| 20260904004546 | 64 | 186 | 0.0 | 3.0 | 0.00 | 0.03 | 0.03 | 92 | 1017.1 |
| 20260904003045 | 64 | 143 | 1.0 | 4.0 | 0.01 | 0.03 | 0.03 | 91 | 1017.3 |
| 20260904001556 | 65 | 152 | 2.0 | 7.0 | 0.01 | 0.03 | 0.03 | 91 | 1017.4 |
| 20260904000040 | 65 | 191 | 3.0 | 6.0 | 0.01 | 0.03 | 0.03 | 91 | 1017.5 |
| 20260903234540 | 65 | 205 | 2.0 | 6.0 | 0.01 | 0.03 | 0.03 | 91 | 1017.5 |
| 20260903233044 | 65 | 193 | 2.0 | 8.0 | 0.00 | 0.02 | 0.02 | 90 | 1017.7 |
| 20260903231541 | 65 | 187 | 3.0 | 7.0 | 0.00 | 0.02 | 0.02 | 90 | 1017.6 |
| 20260903230037 | 65 | 186 | 3.0 | 8.0 | 0.00 | 0.02 | 0.02 | 90 | 1017.8 |
| 20260903224540 | 65 | 221 | 3.0 | 7.0 | 0.00 | 0.02 | 0.02 | 90 | 1017.9 |
| 20260903223038 | 65 | 210 | 3.0 | 7.0 | 0.01 | 0.02 | 0.02 | 89 | 1017.8 |
| 20260903221533 | 65 | 155 | 3.0 | 11.0 | 0.01 | 0.02 | 0.02 | 89 | 1017.9 |
| 20260903220031 | 65 | 133 | 2.0 | 10.0 | 0.02 | 0.02 | 0.02 | 89 | 1018.1 |
| 20260903214534 | 64 | 161 | 3.0 | 7.0 | 0.02 | 0.02 | 0.02 | 89 | 1018.1 |
| 20260903213038 | 65 | 167 | 3.0 | 10.0 | 0.02 | 0.02 | 0.02 | 89 | 1018.3 |
| 20260903211528 | 65 | 176 | 4.0 | 10.0 | 0.02 | 0.02 | 0.02 | 89 | 1018.4 |
| 20260903210028 | 65 | 165 | 2.0 | 7.0 | 0.01 | 0.01 | 0.01 | 88 | 1018.4 |
| 20260903204524 | 65 | 175 | 4.0 | 8.0 | 0.00 | 0.00 | 0.00 | 88 | 1018.7 |
| 20260903203024 | 65 | 193 | 3.0 | 7.0 | 0.00 | 0.00 | 0.00 | 88 | 1018.7 |
| 20260903201522 | 66 | 175 | 3.0 | 10.0 | 0.00 | 0.00 | 0.00 | 87 | 1018.8 |
| 20260903200020 | 66 | 151 | 3.0 | 9.0 | 0.00 | 0.00 | 0.00 | 86 | 1019.0 |
| 20260903194519 | 66 | 153 | 4.0 | 9.0 | 0.00 | 0.00 | 0.00 | 86 | 1019.2 |
| 20260903193019 | 66 | 151 | 4.0 | 8.0 | 0.00 | 0.00 | 0.00 | 84 | 1019.2 |
| 20260903191525 | 66 | 166 | 5.0 | 10.0 | 0.00 | 0.00 | 0.00 | 84 | 1019.4 |
| 20260903190015 | 67 | 114 | 5.0 | 9.0 | 0.00 | 0.00 | 0.00 | 84 | 1019.5 |
| 20260903184513 | 67 | 145 | 5.0 | 10.0 | 0.00 | 0.00 | 0.00 | 82 | 1019.8 |
| 20260903183021 | 67 | 196 | 4.0 | 10.0 | 0.00 | 0.00 | 0.00 | 83 | 1019.9 |
| 20260903181509 | 67 | 167 | 3.0 | 9.0 | 0.00 | 0.00 | 0.00 | 83 | 1020.1 |
| 20260903180015 | 67 | 165 | 3.0 | 9.0 | 0.00 | 0.00 | 0.00 | 83 | 1020.3 |
| 20260903174506 | 66 | 155 | 4.0 | 9.0 | 0.00 | 0.00 | 0.00 | 82 | 1020.4 |
| 20260903173006 | 66 | 177 | 6.0 | 11.0 | 0.00 | 0.00 | 0.00 | 82 | 1020.4 |
| 20260903171504 | 66 | 174 | 4.0 | 10.0 | 0.00 | 0.00 | 0.00 | 83 | 1020.5 |
| 20260903170002 | 66 | 121 | 5.0 | 9.0 | 0.00 | 0.00 | 0.00 | 81 | 1020.7 |
| 20260903164601 | 66 | 224 | 6.0 | 10.0 | 0.00 | 0.00 | 0.00 | 80 | 1020.8 |
| 20260903163135 | 66 | 193 | 4.0 | 10.0 | 0.00 | 0.00 | 0.00 | 81 | 1020.9 |
| 20260903161600 | 66 | 152 | 6.0 | 10.0 | 0.00 | 0.00 | 0.00 | 80 | 1020.9 |
| 20260903154557 | 66 | 117 | 3.0 | 11.0 | 0.00 | 0.00 | 0.00 | 83 | 1020.9 |
| 20260903153056 | 66 | 165 | 4.0 | 11.0 | 0.00 | 0.00 | 0.00 | 82 | 1021.1 |
| 20260903151555 | 66 | 223 | 2.0 | 11.0 | 0.00 | 0.00 | 0.00 | 83 | 1021.2 |
| 20260903150057 | 66 | 139 | 3.0 | 9.0 | 0.00 | 0.00 | 0.00 | 82 | 1021.1 |